Location: Unspecified
(0.0000°N, 0.0000°E)
Time: 06:11:30
(UTC+00:00)

Hubble Space Telescope - Pass Details

Date: 19 October 2019
Orbit: 536 x 540 km, 28.5° (Epoch: 14 October)

Event Time Altitude Azimuth Distance (km) Brightness Sun altitude
Rises 19:56:43 0° 260° (W) 2,677 5.4 -32.4°
Reaches altitude 10° 20:00:37 10° 224° (SW) 1,788 4.0 -33.3°
Enters shadow 20:01:19 11° 214° (SW) 1,733 3.8 -33.5°
